Location: Bishopstone
(51.0167°N, 1.9000°W)
Time: 17:27:42
(UTC+00:00)

Cosmos 2297 Rocket - Pass Details

Date: 16 September 2019
Orbit: 841 x 842 km, 71.0° (Epoch: 22 October)

Event Time Altitude Azimuth Distance (km) Brightness Sun altitude
Rises 23:12:15 0° 262° (W) 3,397 5.4 -35.5°
Reaches altitude 10° 23:15:23 10° 279° (W) 2,465 4.8 -35.6°
Maximum altitude 23:19:28 20° 326° (NW) 1,861 4.5 -35.7°
Drops below altitude 10° 23:23:35 10° 12° (NNE) 2,472 5.3 -35.9°
Sets 23:26:44 0° 30° (NNE) 3,410 6.0 -36.0°
